Time,TemperatureF,DewpointF,PressureIn,WindDirection,WindDirectionDegrees,WindSpeedMPH,WindSpeedGustMPH,Humidity,HourlyPrecipIn,Conditions,Clouds,dailyrainin,SolarRadiationWatts/m^2,SoftwareType,DateUTC
2014-01-26 00:02:00,22.6,15.0,29.89,NW,315,2.3,2.3,72,0.00,BKN,,0.00,0.0,WeatherDisplay:10.37,2014-01-25 23:02:00,
2014-01-26 00:07:00,22.6,15.0,29.89,NE,45,2.3,2.3,72,0.00,BKN,,0.00,0.0,WeatherDisplay:10.37,2014-01-25 23:07:00,
2014-01-26 00:12:00,22.6,14.6,29.88,North,0,3.5,3.5,71,0.00,BKN,,0.00,0.0,WeatherDisplay:10.37,2014-01-25 23:12:00,
2014-01-26 00:17:00,22.6,14.6,29.88,North,0,1.2,0.0,71,0.00,BKN,,0.00,0.0,WeatherDisplay:10.37,2014-01-25 23:17:00,
2014-01-26 00:22:00,22.6,14.3,29.88,NW,315,3.5,3.5,70,0.00,BKN,,0.00,0.0,WeatherDisplay:10.37,2014-01-25 23:22:00,
2014-01-26 00:27:00,22.6,14.3,29.88,NE,45,3.5,3.5,70,0.00,BKN,,0.00,0.0,WeatherDisplay:10.37,2014-01-25 23:27:00,
2014-01-26 00:32:00,22.5,14.1,29.87,NW,315,2.3,2.3,70,0.00,BKN,,0.00,0.0,WeatherDisplay:10.37,2014-01-25 23:32:00,
2014-01-26 00:37:00,22.5,14.1,29.88,West,270,3.5,3.5,70,0.00,BKN,,0.00,0.0,WeatherDisplay:10.37,2014-01-25 23:37:00,
2014-01-26 00:42:00,22.5,14.1,29.88,North,0,2.3,2.3,70,0.00,BKN,,0.00,0.0,WeatherDisplay:10.37,2014-01-25 23:42:00,
2014-01-26 00:47:00,22.5,14.1,29.87,West,270,3.5,3.5,70,0.00,BKN,,0.00,0.0,WeatherDisplay:10.37,2014-01-25 23:47:00,
2014-01-26 00:52:00,22.5,13.8,29.87,West,270,5.8,5.8,69,0.00,BKN,,0.00,0.0,WeatherDisplay:10.37,2014-01-25 23:52:00,
2014-01-26 00:57:00,22.5,13.2,29.87,NW,315,2.3,2.3,67,0.00,BKN,,0.00,0.0,WeatherDisplay:10.37,2014-01-25 23:57:00,
2014-01-26 01:02:00,22.5,13.2,29.87,NW,315,3.5,3.5,67,0.00,BKN,,0.00,0.0,WeatherDisplay:10.37,2014-01-26 00:02:00,
2014-01-26 01:07:00,22.3,12.6,29.87,NW,315,3.5,3.5,66,0.00,BKN,,0.00,0.0,WeatherDisplay:10.37,2014-01-26 00:07:00,
2014-01-26 01:12:00,22.3,12.6,29.87,North,0,2.3,0.0,66,0.00,BKN,,0.00,0.0,WeatherDisplay:10.37,2014-01-26 00:12:00,
2014-01-26 01:17:00,22.3,12.6,29.87,NW,315,3.5,3.5,66,0.00,BKN,,0.00,0.0,WeatherDisplay:10.37,2014-01-26 00:17:00,
2014-01-26 01:22:00,22.3,12.6,29.87,North,0,2.3,0.0,66,0.00,BKN,,0.00,0.0,WeatherDisplay:10.37,2014-01-26 00:22:00,
2014-01-26 01:27:00,22.3,12.6,29.86,North,0,2.3,0.0,66,0.00,BKN,,0.00,0.0,WeatherDisplay:10.37,2014-01-26 00:27:00,
2014-01-26 01:32:00,22.3,12.6,29.86,North,0,3.5,3.5,66,0.00,BKN,,0.00,0.0,WeatherDisplay:10.37,2014-01-26 00:32:00,
2014-01-26 01:37:00,22.3,12.6,29.87,WNW,292,3.5,3.5,66,0.00,BKN,,0.00,0.0,WeatherDisplay:10.37,2014-01-26 00:37:00,
2014-01-26 01:42:00,22.3,12.6,29.87,NW,315,2.3,2.3,66,0.00,BKN,,0.00,0.0,WeatherDisplay:10.37,2014-01-26 00:42:00,
2014-01-26 01:47:00,22.3,12.6,29.87,NNE,22,2.3,2.3,66,0.00,BKN,,0.00,0.0,WeatherDisplay:10.37,2014-01-26 00:47:00,
2014-01-26 01:52:00,22.3,12.6,29.87,North,0,1.2,1.2,66,0.00,BKN,,0.00,0.0,WeatherDisplay:10.37,2014-01-26 00:52:00,
2014-01-26 01:57:00,22.3,12.6,29.86,NW,315,2.3,2.3,66,0.00,BKN,,0.00,0.0,WeatherDisplay:10.37,2014-01-26 00:57:00,
2014-01-26 02:02:00,22.3,12.6,29.85,North,0,3.5,3.5,66,0.00,BKN,,0.00,0.0,WeatherDisplay:10.37,2014-01-26 01:02:00,
2014-01-26 02:07:00,22.3,12.6,29.85,North,0,3.5,3.5,66,0.00,BKN,,0.00,0.0,WeatherDisplay:10.37,2014-01-26 01:07:00,
2014-01-26 02:12:00,22.3,12.6,29.85,North,0,2.3,2.3,66,0.00,BKN,,0.00,0.0,WeatherDisplay:10.37,2014-01-26 01:12:00,
2014-01-26 02:17:00,22.3,12.6,29.85,North,0,3.5,3.5,66,0.00,BKN,,0.00,0.0,WeatherDisplay:10.37,2014-01-26 01:17:00,
2014-01-26 02:22:00,22.3,12.6,29.85,North,0,3.5,3.5,66,0.00,BKN,,0.00,0.0,WeatherDisplay:10.37,2014-01-26 01:22:00,
2014-01-26 02:27:00,22.1,12.5,29.85,NE,45,3.5,3.5,66,0.00,BKN,,0.00,0.0,WeatherDisplay:10.37,2014-01-26 01:27:00,
2014-01-26 02:32:00,22.1,12.5,29.85,NE,45,3.5,3.5,66,0.00,BKN,,0.00,0.0,WeatherDisplay:10.37,2014-01-26 01:32:00,
2014-01-26 02:37:00,22.1,12.8,29.85,NE,45,3.5,3.5,67,0.00,BKN,,0.00,0.0,WeatherDisplay:10.37,2014-01-26 01:37:00,
2014-01-26 02:42:00,21.9,12.6,29.84,NE,45,3.5,3.5,67,0.00,BKN,,0.00,0.0,WeatherDisplay:10.37,2014-01-26 01:42:00,
2014-01-26 02:47:00,21.9,12.6,29.84,NE,45,2.3,2.3,67,0.00,BKN,,0.00,0.0,WeatherDisplay:10.37,2014-01-26 01:47:00,
2014-01-26 02:52:00,21.7,12.5,29.84,NE,45,2.3,2.3,67,0.00,BKN,,0.00,0.0,WeatherDisplay:10.37,2014-01-26 01:52:00,
2014-01-26 02:57:00,21.7,12.5,29.83,NE,45,2.3,2.3,67,0.00,BKN,,0.00,0.0,WeatherDisplay:10.37,2014-01-26 01:57:00,
2014-01-26 03:02:00,21.7,12.8,29.83,NE,45,3.5,3.5,68,0.00,BKN,,0.00,0.0,WeatherDisplay:10.37,2014-01-26 02:02:00,
2014-01-26 03:07:00,21.7,12.8,29.83,NE,45,3.5,3.5,68,0.00,BKN,,0.00,0.0,WeatherDisplay:10.37,2014-01-26 02:07:00,
2014-01-26 03:12:00,21.7,12.8,29.83,East,90,2.3,2.3,68,0.00,BKN,,0.00,0.0,WeatherDisplay:10.37,2014-01-26 02:12:00,
2014-01-26 03:17:00,21.7,12.8,29.83,NE,45,2.3,2.3,68,0.00,BKN,,0.00,0.0,WeatherDisplay:10.37,2014-01-26 02:17:00,
2014-01-26 03:22:00,21.6,12.6,29.83,NE,45,3.5,3.5,68,0.00,BKN,,0.00,0.0,WeatherDisplay:10.37,2014-01-26 02:22:00,
2014-01-26 03:27:00,21.6,12.6,29.83,NNE,22,3.5,3.5,68,0.00,BKN,,0.00,0.0,WeatherDisplay:10.37,2014-01-26 02:27:00,
2014-01-26 03:32:00,21.6,12.6,29.83,NE,45,3.5,3.5,68,0.00,BKN,,0.00,0.0,WeatherDisplay:10.37,2014-01-26 02:32:00,
2014-01-26 03:37:00,21.6,12.6,29.83,NE,45,2.3,2.3,68,0.00,BKN,,0.00,0.0,WeatherDisplay:10.37,2014-01-26 02:37:00,
2014-01-26 03:42:00,21.6,12.6,29.82,NE,45,3.5,3.5,68,0.00,BKN,,0.00,0.0,WeatherDisplay:10.37,2014-01-26 02:42:00,
2014-01-26 03:47:00,21.6,12.6,29.83,NE,45,2.3,2.3,68,0.00,BKN,,0.00,0.0,WeatherDisplay:10.37,2014-01-26 02:47:00,
2014-01-26 03:52:00,21.6,12.6,29.83,NE,45,3.5,3.5,68,0.00,BKN,,0.00,0.0,WeatherDisplay:10.37,2014-01-26 02:52:00,
2014-01-26 03:57:00,21.6,12.6,29.83,NE,45,3.5,3.5,68,0.00,BKN,,0.00,0.0,WeatherDisplay:10.37,2014-01-26 02:57:00,
2014-01-26 04:02:00,21.6,13.0,29.83,North,0,2.3,2.3,69,0.00,BKN,,0.00,0.0,WeatherDisplay:10.37,2014-01-26 03:02:00,
2014-01-26 04:07:00,21.6,13.0,29.83,NE,45,3.5,3.5,69,0.00,BKN,,0.00,0.0,WeatherDisplay:10.37,2014-01-26 03:07:00,
2014-01-26 04:12:00,21.6,13.0,29.83,NE,45,3.5,3.5,69,0.00,BKN,,0.00,0.0,WeatherDisplay:10.37,2014-01-26 03:12:00,
2014-01-26 04:17:00,21.6,13.0,29.82,NE,45,2.3,2.3,69,0.00,BKN,,0.00,0.0,WeatherDisplay:10.37,2014-01-26 03:17:00,
2014-01-26 04:22:00,21.6,13.3,29.83,NE,45,3.5,3.5,70,0.00,BKN,,0.00,0.0,WeatherDisplay:10.37,2014-01-26 03:22:00,
2014-01-26 04:27:00,21.6,13.3,29.82,NE,45,3.5,3.5,70,0.00,BKN,,0.00,0.0,WeatherDisplay:10.37,2014-01-26 03:27:00,
2014-01-26 04:32:00,21.6,13.3,29.83,NE,45,2.3,2.3,70,0.00,BKN,,0.00,0.0,WeatherDisplay:10.37,2014-01-26 03:32:00,
2014-01-26 04:37:00,21.6,13.6,29.83,East,90,2.3,2.3,71,0.00,BKN,,0.00,0.0,WeatherDisplay:10.37,2014-01-26 03:37:00,
2014-01-26 04:42:00,21.6,13.6,29.83,NE,45,2.3,2.3,71,0.00,BKN,,0.00,0.0,WeatherDisplay:10.37,2014-01-26 03:42:00,
2014-01-26 04:47:00,21.6,13.6,29.83,NE,45,2.3,2.3,71,0.00,BKN,,0.00,0.0,WeatherDisplay:10.37,2014-01-26 03:47:00,
2014-01-26 04:52:00,21.6,13.9,29.83,East,90,2.3,2.3,72,0.00,BKN,,0.00,0.0,WeatherDisplay:10.37,2014-01-26 03:52:00,
2014-01-26 04:57:00,21.6,13.9,29.83,East,90,1.2,1.2,72,0.00,BKN,,0.00,0.0,WeatherDisplay:10.37,2014-01-26 03:57:00,
2014-01-26 05:02:00,21.6,13.9,29.83,NE,45,3.5,3.5,72,0.00,BKN,,0.00,0.0,WeatherDisplay:10.37,2014-01-26 04:02:00,
2014-01-26 05:07:00,21.6,13.9,29.83,East,90,3.5,3.5,72,0.00,BKN,,0.00,0.0,WeatherDisplay:10.37,2014-01-26 04:07:00,
2014-01-26 05:12:00,21.6,14.2,29.83,East,90,2.3,2.3,73,0.00,BKN,,0.00,0.0,WeatherDisplay:10.37,2014-01-26 04:12:00,
2014-01-26 05:17:00,21.6,14.2,29.83,NE,45,3.5,3.5,73,0.00,BKN,,0.00,0.0,WeatherDisplay:10.37,2014-01-26 04:17:00,
2014-01-26 05:22:00,21.6,14.2,29.83,North,0,3.5,0.0,73,0.00,BKN,,0.00,0.0,WeatherDisplay:10.37,2014-01-26 04:22:00,
2014-01-26 05:27:00,21.6,14.2,29.83,NW,315,3.5,3.5,73,0.00,BKN,,0.00,0.0,WeatherDisplay:10.37,2014-01-26 04:27:00,
2014-01-26 05:32:00,21.6,14.2,29.83,NE,45,2.3,2.3,73,0.00,BKN,,0.00,0.0,WeatherDisplay:10.37,2014-01-26 04:32:00,
2014-01-26 05:37:00,21.6,14.2,29.83,NE,45,2.3,2.3,73,0.00,BKN,,0.00,0.0,WeatherDisplay:10.37,2014-01-26 04:37:00,
2014-01-26 05:42:00,21.6,14.2,29.83,East,90,2.3,0.0,73,0.00,BKN,,0.00,0.0,WeatherDisplay:10.37,2014-01-26 04:42:00,
2014-01-26 05:47:00,21.6,14.2,29.83,East,90,3.5,3.5,73,0.00,BKN,,0.00,0.0,WeatherDisplay:10.37,2014-01-26 04:47:00,
2014-01-26 05:52:00,21.6,14.6,29.83,East,90,3.5,3.5,74,0.00,BKN,,0.00,0.0,WeatherDisplay:10.37,2014-01-26 04:52:00,
2014-01-26 05:57:00,21.6,14.6,29.83,East,90,2.3,2.3,74,0.00,BKN,,0.00,0.0,WeatherDisplay:10.37,2014-01-26 04:57:00,
2014-01-26 06:01:00,21.6,14.6,29.83,East,90,2.3,2.3,74,0.00,BKN,,0.00,0.0,WeatherDisplay:10.37,2014-01-26 05:01:00,
2014-01-26 06:06:00,21.6,14.6,29.83,East,90,2.3,2.3,74,0.00,BKN,,0.00,0.0,WeatherDisplay:10.37,2014-01-26 05:06:00,
2014-01-26 06:11:00,21.6,14.6,29.83,East,90,3.5,3.5,74,0.00,BKN,,0.00,0.0,WeatherDisplay:10.37,2014-01-26 05:11:00,
2014-01-26 06:16:00,21.6,14.6,29.83,NE,45,3.5,3.5,74,0.00,BKN,,0.00,0.0,WeatherDisplay:10.37,2014-01-26 05:16:00,
2014-01-26 06:21:00,21.6,14.6,29.83,NE,45,3.5,3.5,74,0.00,BKN,,0.00,0.0,WeatherDisplay:10.37,2014-01-26 05:21:00,
2014-01-26 06:26:00,21.6,14.6,29.83,SE,135,3.5,3.5,74,0.00,BKN,,0.00,0.0,WeatherDisplay:10.37,2014-01-26 05:26:00,
2014-01-26 06:31:00,21.6,14.6,29.83,East,90,2.3,2.3,74,0.00,BKN,,0.00,0.0,WeatherDisplay:10.37,2014-01-26 05:31:00,
2014-01-26 06:36:00,21.6,14.6,29.83,NE,45,2.3,0.0,74,0.00,BKN,,0.00,0.0,WeatherDisplay:10.37,2014-01-26 05:36:00,
2014-01-26 06:41:00,21.6,14.9,29.84,NE,45,1.2,0.0,75,0.00,BKN,,0.00,0.0,WeatherDisplay:10.37,2014-01-26 05:41:00,
2014-01-26 06:46:00,21.6,14.9,29.83,NE,45,2.3,2.3,75,0.00,BKN,,0.00,0.0,WeatherDisplay:10.37,2014-01-26 05:46:00,
2014-01-26 06:51:00,21.6,14.9,29.84,East,90,2.3,2.3,75,0.00,BKN,,0.00,0.0,WeatherDisplay:10.37,2014-01-26 05:51:00,
2014-01-26 06:56:00,21.6,14.9,29.84,NE,45,2.3,0.0,75,0.00,BKN,,0.00,0.0,WeatherDisplay:10.37,2014-01-26 05:56:00,
2014-01-26 07:01:00,21.4,14.7,29.84,East,90,1.2,0.0,75,0.00,BKN,,0.00,0.0,WeatherDisplay:10.37,2014-01-26 06:01:00,
2014-01-26 07:06:00,21.6,14.9,29.84,East,90,1.2,0.0,75,0.00,BKN,,0.00,0.0,WeatherDisplay:10.37,2014-01-26 06:06:00,
2014-01-26 07:11:00,21.6,14.9,29.84,NE,45,3.5,0.0,75,0.00,BKN,,0.00,0.0,WeatherDisplay:10.37,2014-01-26 06:11:00,
2014-01-26 07:16:00,21.6,14.9,29.84,East,90,2.3,2.3,75,0.00,OVC,,0.00,0.0,WeatherDisplay:10.37,2014-01-26 06:16:00,
2014-01-26 07:21:00,21.6,14.9,29.84,NE,45,2.3,0.0,75,0.00,OVC,,0.00,0.0,WeatherDisplay:10.37,2014-01-26 06:21:00,
2014-01-26 07:26:00,21.6,14.9,29.84,NE,45,1.2,1.2,75,0.00,OVC,,0.00,0.0,WeatherDisplay:10.37,2014-01-26 06:26:00,
2014-01-26 07:31:00,21.6,14.9,29.84,NE,45,0.0,0.0,75,0.00,OVC,,0.00,0.0,WeatherDisplay:10.37,2014-01-26 06:31:00,
2014-01-26 07:36:00,21.6,14.9,29.85,NE,45,0.0,0.0,75,0.00,OVC,,0.00,0.0,WeatherDisplay:10.37,2014-01-26 06:36:00,
2014-01-26 07:41:00,21.6,14.9,29.85,SE,135,0.0,0.0,75,0.00,OVC,,0.00,1.4,WeatherDisplay:10.37,2014-01-26 06:41:00,
2014-01-26 07:46:00,21.6,14.9,29.85,East,90,1.2,0.0,75,0.00,BKN,,0.00,4.9,WeatherDisplay:10.37,2014-01-26 06:46:00,
2014-01-26 07:51:00,21.6,14.9,29.85,SE,135,1.2,1.2,75,0.00,BKN,,0.00,4.9,WeatherDisplay:10.37,2014-01-26 06:51:00,
2014-01-26 07:56:00,21.6,14.9,29.85,East,90,1.2,0.0,75,0.00,BKN,,0.00,7.0,WeatherDisplay:10.37,2014-01-26 06:56:00,
2014-01-26 08:01:00,21.6,14.9,29.86,East,90,1.2,0.0,75,0.00,BKN,,0.00,8.4,WeatherDisplay:10.37,2014-01-26 07:01:00,
2014-01-26 08:06:00,21.6,14.9,29.86,East,90,1.2,0.0,75,0.00,OVC,,0.00,4.9,WeatherDisplay:10.37,2014-01-26 07:06:00,
2014-01-26 08:11:00,21.7,15.0,29.86,SE,135,1.2,0.0,75,0.00,OVC,,0.00,4.9,WeatherDisplay:10.37,2014-01-26 07:11:00,
2014-01-26 08:16:00,21.9,15.2,29.86,SE,135,1.2,0.0,75,0.00,OVC,,0.00,7.0,WeatherDisplay:10.37,2014-01-26 07:16:00,
2014-01-26 08:21:00,21.9,15.2,29.86,SE,135,2.3,2.3,75,0.00,BKN,,0.00,14.0,WeatherDisplay:10.37,2014-01-26 07:21:00,
2014-01-26 08:26:00,21.9,15.2,29.86,SE,135,1.2,1.2,75,0.00,BKN,,0.00,20.3,WeatherDisplay:10.37,2014-01-26 07:26:00,
2014-01-26 08:31:00,21.9,15.2,29.86,SE,135,1.2,1.2,75,0.00,BKN,,0.00,22.4,WeatherDisplay:10.37,2014-01-26 07:31:00,
2014-01-26 08:36:00,22.1,15.4,29.86,East,90,1.2,1.2,75,0.00,BKN,,0.00,27.4,WeatherDisplay:10.37,2014-01-26 07:36:00,
2014-01-26 08:41:00,22.1,15.4,29.86,East,90,1.2,0.0,75,0.00,BKN,,0.00,28.8,WeatherDisplay:10.37,2014-01-26 07:41:00,
2014-01-26 08:46:00,22.1,15.4,29.86,SE,135,3.5,3.5,75,0.00,BKN,,0.00,32.3,WeatherDisplay:10.37,2014-01-26 07:46:00,
2014-01-26 08:51:00,22.3,15.6,29.86,East,90,1.2,0.0,75,0.00,BKN,,0.00,32.3,WeatherDisplay:10.37,2014-01-26 07:51:00,
2014-01-26 08:56:00,22.3,15.6,29.86,East,90,2.3,2.3,75,0.00,BKN,,0.00,32.3,WeatherDisplay:10.37,2014-01-26 07:56:00,
2014-01-26 09:01:00,22.5,15.7,29.87,East,90,3.5,3.5,75,0.00,BKN,,0.00,37.9,WeatherDisplay:10.37,2014-01-26 08:01:00,
2014-01-26 09:06:00,22.5,15.7,29.87,East,90,3.5,3.5,75,0.00,BKN,,0.00,41.4,WeatherDisplay:10.37,2014-01-26 08:06:00,
2014-01-26 09:11:00,22.5,15.7,29.87,East,90,3.5,3.5,75,0.00,BKN,,0.00,44.2,WeatherDisplay:10.37,2014-01-26 08:11:00,
2014-01-26 09:16:00,22.5,15.7,29.88,NE,45,2.3,2.3,75,0.00,BKN,,0.00,44.2,WeatherDisplay:10.37,2014-01-26 08:16:00,
2014-01-26 09:21:00,22.6,15.9,29.88,SE,135,2.3,2.3,75,0.00,BKN,,0.00,39.3,WeatherDisplay:10.37,2014-01-26 08:21:00,
2014-01-26 09:26:00,22.6,15.9,29.88,East,90,3.5,3.5,75,0.00,BKN,,0.00,59.6,WeatherDisplay:10.37,2014-01-26 08:26:00,
2014-01-26 09:31:00,22.6,15.9,29.88,East,90,3.5,3.5,75,0.00,BKN,,0.00,78.6,WeatherDisplay:10.37,2014-01-26 08:31:00,
2014-01-26 09:36:00,22.8,16.1,29.88,NW,315,2.3,2.3,75,0.00,BKN,,0.00,84.2,WeatherDisplay:10.37,2014-01-26 08:36:00,
2014-01-26 09:41:00,23.0,15.9,29.88,SE,135,1.2,1.2,74,0.00,BKN,,0.00,84.2,WeatherDisplay:10.37,2014-01-26 08:41:00,
2014-01-26 09:46:00,23.0,15.6,29.88,East,90,2.3,2.3,73,0.00,BKN,,0.00,85.6,WeatherDisplay:10.37,2014-01-26 08:46:00,
2014-01-26 09:51:00,23.0,15.6,29.89,NE,45,1.2,0.0,73,0.00,BKN,,0.00,92.6,WeatherDisplay:10.37,2014-01-26 08:51:00,
2014-01-26 09:56:00,23.2,15.8,29.89,NE,45,1.2,1.2,73,0.00,BKN,,0.00,78.6,WeatherDisplay:10.37,2014-01-26 08:56:00,
2014-01-26 10:01:00,23.2,15.8,29.89,NE,45,1.6,0.0,73,0.00,BKN,,0.00,75.1,WeatherDisplay:10.37,2014-01-26 09:01:00,
2014-01-26 10:06:00,23.4,16.0,29.89,NE,45,2.3,2.3,73,0.00,BKN,,0.00,97.5,WeatherDisplay:10.37,2014-01-26 09:06:00,
2014-01-26 10:11:00,23.4,16.0,29.89,NE,45,2.3,2.3,73,0.00,BKN,,0.00,112.9,WeatherDisplay:10.37,2014-01-26 09:11:00,
2014-01-26 10:16:00,23.4,16.0,29.89,SE,135,3.5,3.5,73,0.00,BKN,,0.00,94.0,WeatherDisplay:10.37,2014-01-26 09:16:00,
2014-01-26 10:21:00,23.5,16.2,29.89,East,90,4.6,4.6,73,0.00,BKN,,0.00,82.1,WeatherDisplay:10.37,2014-01-26 09:21:00,
2014-01-26 10:26:00,23.5,16.2,29.89,East,90,3.5,3.5,73,0.00,SCT,,0.00,131.9,WeatherDisplay:10.37,2014-01-26 09:26:00,
2014-01-26 10:31:00,23.5,16.2,29.89,SE,135,3.5,3.5,73,0.00,BKN,,0.00,128.4,WeatherDisplay:10.37,2014-01-26 09:31:00,
2014-01-26 10:36:00,23.7,16.3,29.89,NE,45,4.6,4.6,73,0.00,SCT,,0.00,131.9,WeatherDisplay:10.37,2014-01-26 09:36:00,
2014-01-26 10:41:00,23.7,16.3,29.89,East,90,4.6,4.6,73,0.00,SCT,,0.00,157.8,WeatherDisplay:10.37,2014-01-26 09:41:00,
2014-01-26 10:46:00,23.9,16.5,29.89,NE,45,4.6,4.6,73,0.00,SCT,,0.00,171.1,WeatherDisplay:10.37,2014-01-26 09:46:00,
2014-01-26 10:51:00,24.1,16.7,29.88,East,90,3.5,3.5,73,0.00,SCT,,0.00,160.6,WeatherDisplay:10.37,2014-01-26 09:51:00,
2014-01-26 10:56:00,24.3,16.5,29.89,East,90,2.3,2.3,72,0.00,SCT,,0.00,136.8,WeatherDisplay:10.37,2014-01-26 09:56:00,
2014-01-26 11:01:00,24.3,16.5,29.88,East,90,4.6,4.6,72,0.00,SCT,,0.00,142.4,WeatherDisplay:10.37,2014-01-26 10:01:00,
2014-01-26 11:06:00,24.4,16.7,29.88,East,90,5.8,5.8,72,0.00,SCT,,0.00,169.7,WeatherDisplay:10.37,2014-01-26 10:06:00,
2014-01-26 11:11:00,24.3,16.5,29.88,East,90,5.8,5.8,72,0.00,SCT,,0.00,150.8,WeatherDisplay:10.37,2014-01-26 10:11:00,
2014-01-26 11:16:00,24.3,16.5,29.88,North,0,5.8,5.8,72,0.00,BKN,,0.00,130.5,WeatherDisplay:10.37,2014-01-26 10:16:00,
2014-01-26 11:21:00,24.3,16.5,29.88,East,90,3.5,3.5,72,0.00,SCT,,0.00,160.6,WeatherDisplay:10.37,2014-01-26 10:21:00,
2014-01-26 11:26:00,24.4,16.7,29.88,East,90,3.5,3.5,72,0.00,FEW,,0.00,203.4,WeatherDisplay:10.37,2014-01-26 10:26:00,
2014-01-26 11:31:00,24.4,16.7,29.88,NE,45,3.5,4.5,72,0.00,FEW,,0.00,203.4,WeatherDisplay:10.37,2014-01-26 10:31:00,
2014-01-26 11:36:00,24.6,16.9,29.87,NE,45,3.5,3.5,72,0.00,CLR,,0.00,255.3,WeatherDisplay:10.37,2014-01-26 10:36:00,
2014-01-26 11:41:00,24.6,16.9,29.87,East,90,2.3,2.3,72,0.00,FEW,,0.00,212.5,WeatherDisplay:10.37,2014-01-26 10:41:00,
2014-01-26 11:46:00,24.8,16.4,29.88,NW,315,6.9,6.9,70,0.00,CLR,,0.00,260.2,WeatherDisplay:10.37,2014-01-26 10:46:00,
2014-01-26 11:51:00,24.8,16.4,29.87,North,0,3.5,3.5,70,0.00,FEW,,0.00,241.3,WeatherDisplay:10.37,2014-01-26 10:51:00,
2014-01-26 11:56:00,24.8,16.4,29.87,North,0,5.8,5.8,70,0.00,FEW,,0.00,220.9,WeatherDisplay:10.37,2014-01-26 10:56:00,
2014-01-26 12:01:00,24.8,16.4,29.88,NW,315,5.8,5.8,70,0.00,FEW,,0.00,239.9,WeatherDisplay:10.37,2014-01-26 11:01:00,
2014-01-26 12:06:00,24.8,16.4,29.87,East,90,5.8,5.8,70,0.00,SCT,,0.00,185.2,WeatherDisplay:10.37,2014-01-26 11:06:00,
2014-01-26 12:11:00,25.0,16.2,29.88,NE,45,4.6,4.6,69,0.00,SCT,,0.00,169.7,WeatherDisplay:10.37,2014-01-26 11:11:00,
2014-01-26 12:16:00,25.0,16.2,29.87,NE,45,3.5,3.5,69,0.00,SCT,,0.00,176.1,WeatherDisplay:10.37,2014-01-26 11:16:00,
2014-01-26 12:21:00,25.0,16.2,29.87,East,90,3.5,3.5,69,0.00,FEW,,0.00,210.4,WeatherDisplay:10.37,2014-01-26 11:21:00,
2014-01-26 12:26:00,25.2,16.1,29.87,North,0,3.5,3.5,68,0.00,CLR,,0.00,263.7,WeatherDisplay:10.37,2014-01-26 11:26:00,
2014-01-26 12:31:00,25.2,16.4,29.87,SE,135,1.2,1.2,69,0.00,CLR,,0.00,415.9,WeatherDisplay:10.37,2014-01-26 11:31:00,
2014-01-26 12:36:00,25.5,16.8,29.87,NE,45,6.0,6.0,69,0.00,CLR,,0.00,385.1,WeatherDisplay:10.37,2014-01-26 11:36:00,
2014-01-26 12:41:00,25.9,17.1,29.87,SE,135,4.6,4.6,69,0.00,CLR,,0.00,289.7,WeatherDisplay:10.37,2014-01-26 11:41:00,
2014-01-26 12:46:00,26.2,17.4,29.87,East,90,5.8,5.8,69,0.00,CLR,,0.00,361.2,WeatherDisplay:10.37,2014-01-26 11:46:00,
2014-01-26 12:51:00,26.4,17.3,29.87,NE,45,2.3,2.3,68,0.00,CLR,,0.00,426.5,WeatherDisplay:10.37,2014-01-26 11:51:00,
2014-01-26 12:56:00,26.6,17.1,29.86,ENE,68,5.8,5.8,67,0.00,CLR,,0.00,248.3,WeatherDisplay:10.37,2014-01-26 11:56:00,
2014-01-26 13:01:00,26.8,16.9,29.87,NE,45,5.8,5.8,66,0.00,CLR,,0.00,270.8,WeatherDisplay:10.37,2014-01-26 12:01:00,
2014-01-26 13:06:00,26.6,16.4,29.86,East,90,5.8,5.8,65,0.00,FEW,,0.00,209.0,WeatherDisplay:10.37,2014-01-26 12:06:00,
2014-01-26 13:11:00,26.6,16.4,29.86,SE,135,5.8,5.8,65,0.00,CLR,,0.00,319.9,WeatherDisplay:10.37,2014-01-26 12:11:00,
2014-01-26 13:16:00,26.4,16.2,29.86,NE,45,5.8,5.8,65,0.00,FEW,,0.00,193.6,WeatherDisplay:10.37,2014-01-26 12:16:00,
2014-01-26 13:21:00,26.4,16.6,29.86,NE,45,5.8,5.8,66,0.00,FEW,,0.00,216.0,WeatherDisplay:10.37,2014-01-26 12:21:00,
2014-01-26 13:26:00,26.4,16.6,29.86,North,0,3.5,3.5,66,0.00,CLR,,0.00,241.3,WeatherDisplay:10.37,2014-01-26 12:26:00,
2014-01-26 13:31:00,26.4,16.6,29.86,East,90,6.9,6.9,66,0.00,FEW,,0.00,190.1,WeatherDisplay:10.37,2014-01-26 12:31:00,
2014-01-26 13:36:00,26.4,16.6,29.86,North,0,3.5,3.5,66,0.00,CLR,,0.00,220.9,WeatherDisplay:10.37,2014-01-26 12:36:00,
2014-01-26 13:41:00,26.4,16.6,29.86,East,90,5.8,5.8,66,0.00,BKN,,0.00,121.3,WeatherDisplay:10.37,2014-01-26 12:41:00,
2014-01-26 13:46:00,26.4,16.6,29.86,North,0,3.5,0.0,66,0.00,BKN,,0.00,85.6,WeatherDisplay:10.37,2014-01-26 12:46:00,
2014-01-26 13:51:00,26.4,16.6,29.86,North,0,5.8,5.8,66,0.00,BKN,,0.00,82.1,WeatherDisplay:10.37,2014-01-26 12:51:00,
2014-01-26 13:56:00,26.4,16.6,29.86,NNE,22,6.9,6.9,66,0.00,BKN,,0.00,80.7,WeatherDisplay:10.37,2014-01-26 12:56:00,
2014-01-26 14:01:00,26.4,16.6,29.86,North,0,3.5,3.5,66,0.00,BKN,,0.00,96.1,WeatherDisplay:10.37,2014-01-26 13:01:00,
2014-01-26 14:06:00,26.4,16.6,29.85,NE,45,3.5,3.5,66,0.00,SCT,,0.00,143.8,WeatherDisplay:10.37,2014-01-26 13:06:00,
2014-01-26 14:11:00,26.2,16.4,29.85,East,90,3.5,3.5,66,0.00,SCT,,0.00,115.0,WeatherDisplay:10.37,2014-01-26 13:11:00,
2014-01-26 14:16:00,26.2,16.4,29.86,NE,45,4.6,4.6,66,0.00,SCT,,0.00,121.3,WeatherDisplay:10.37,2014-01-26 13:16:00,
2014-01-26 14:21:00,26.2,16.4,29.85,East,90,2.3,0.0,66,0.00,SCT,,0.00,130.5,WeatherDisplay:10.37,2014-01-26 13:21:00,
2014-01-26 14:26:00,26.4,16.6,29.85,South,180,2.3,2.3,66,0.00,FEW,,0.00,167.6,WeatherDisplay:10.37,2014-01-26 13:26:00,
2014-01-26 14:31:00,26.4,16.6,29.85,NE,45,1.2,0.0,66,0.00,FEW,,0.00,142.4,WeatherDisplay:10.37,2014-01-26 13:31:00,
2014-01-26 14:36:00,26.4,16.6,29.86,NE,45,3.5,3.5,66,0.00,SCT,,0.00,124.9,WeatherDisplay:10.37,2014-01-26 13:36:00,
2014-01-26 14:41:00,26.4,16.6,29.86,SW,225,2.3,0.0,66,0.00,SCT,,0.00,108.0,WeatherDisplay:10.37,2014-01-26 13:41:00,
2014-01-26 14:46:00,26.4,16.2,29.86,NE,45,1.2,1.2,65,0.00,BKN,,0.00,92.6,WeatherDisplay:10.37,2014-01-26 13:46:00,
2014-01-26 14:51:00,26.4,16.2,29.87,NE,45,5.8,5.8,65,0.00,BKN,,0.00,73.7,WeatherDisplay:10.37,2014-01-26 13:51:00,
2014-01-26 14:56:00,26.4,16.6,29.87,East,90,3.1,3.1,66,0.00,BKN,,0.00,58.2,WeatherDisplay:10.37,2014-01-26 13:56:00,
2014-01-26 15:01:00,26.4,16.6,29.87,NNE,22,3.5,3.5,66,0.00,BKN,,0.00,51.2,WeatherDisplay:10.37,2014-01-26 14:01:00,
2014-01-26 15:06:00,26.4,16.2,29.87,East,90,2.3,2.3,65,0.00,BKN,,0.00,70.1,WeatherDisplay:10.37,2014-01-26 14:06:00,
2014-01-26 15:11:00,26.4,16.2,29.88,East,90,3.5,3.5,65,0.00,BKN,,0.00,66.6,WeatherDisplay:10.37,2014-01-26 14:11:00,
2014-01-26 15:16:00,26.4,16.2,29.87,East,90,3.5,3.5,65,0.00,BKN,,0.00,51.2,WeatherDisplay:10.37,2014-01-26 14:16:00,
2014-01-26 15:21:00,26.2,16.1,29.87,SE,135,5.8,5.8,65,0.00,BKN,,0.00,47.7,WeatherDisplay:10.37,2014-01-26 14:21:00,
2014-01-26 15:26:00,26.2,16.1,29.87,East,90,4.6,4.6,65,0.00,BKN,,0.00,42.8,WeatherDisplay:10.37,2014-01-26 14:26:00,
2014-01-26 15:31:00,26.1,15.9,29.88,East,90,4.6,4.6,65,0.00,BKN,,0.00,42.8,WeatherDisplay:10.37,2014-01-26 14:31:00,
2014-01-26 15:36:00,26.1,15.9,29.87,NE,45,5.8,5.8,65,0.00,BKN,,0.00,47.7,WeatherDisplay:10.37,2014-01-26 14:36:00,
2014-01-26 15:41:00,25.9,15.7,29.88,East,90,3.5,3.5,65,0.00,BKN,,0.00,54.7,WeatherDisplay:10.37,2014-01-26 14:41:00,
2014-01-26 15:46:00,25.9,15.7,29.87,NE,45,3.5,3.5,65,0.00,BKN,,0.00,49.8,WeatherDisplay:10.37,2014-01-26 14:46:00,
2014-01-26 15:51:00,25.7,15.6,29.88,NE,45,2.3,2.3,65,0.00,BKN,,0.00,46.3,WeatherDisplay:10.37,2014-01-26 14:51:00,
2014-01-26 15:56:00,25.7,15.6,29.88,NE,45,1.2,1.2,65,0.00,BKN,,0.00,41.4,WeatherDisplay:10.37,2014-01-26 14:56:00,
2014-01-26 16:01:00,25.5,15.4,29.88,SE,135,2.3,2.3,65,0.00,BKN,,0.00,37.9,WeatherDisplay:10.37,2014-01-26 15:01:00,
2014-01-26 16:06:00,25.5,15.4,29.88,SE,135,2.3,2.3,65,0.00,SCT,,0.00,39.3,WeatherDisplay:10.37,2014-01-26 15:06:00,
2014-01-26 16:11:00,25.5,15.4,29.88,SE,135,3.5,3.5,65,0.00,BKN,,0.00,30.9,WeatherDisplay:10.37,2014-01-26 15:11:00,
2014-01-26 16:16:00,25.3,15.2,29.88,NE,45,3.5,3.5,65,0.00,BKN,,0.00,20.3,WeatherDisplay:10.37,2014-01-26 15:16:00,
2014-01-26 16:21:00,25.3,15.2,29.88,NE,45,3.5,3.5,65,0.00,BKN,,0.00,15.4,WeatherDisplay:10.37,2014-01-26 15:21:00,
2014-01-26 16:26:00,25.2,15.0,29.88,NE,45,3.5,3.5,65,0.00,BKN,,0.00,11.9,WeatherDisplay:10.37,2014-01-26 15:26:00,
2014-01-26 16:31:00,25.2,15.0,29.88,East,90,4.6,4.6,65,0.00,BKN,,0.00,7.0,WeatherDisplay:10.37,2014-01-26 15:31:00,
2014-01-26 16:36:00,25.0,14.9,29.88,East,90,4.6,4.6,65,0.00,BKN,,0.00,4.9,WeatherDisplay:10.37,2014-01-26 15:36:00,
2014-01-26 16:41:00,24.8,14.7,29.89,East,90,4.6,4.6,65,0.00,BKN,,0.00,1.4,WeatherDisplay:10.37,2014-01-26 15:41:00,
2014-01-26 16:46:00,24.6,14.9,29.89,NE,45,3.5,3.5,66,0.00,BKN,,0.00,0.0,WeatherDisplay:10.37,2014-01-26 15:46:00,
2014-01-26 16:51:00,24.6,14.9,29.89,East,90,3.5,3.5,66,0.00,BKN,,0.00,0.0,WeatherDisplay:10.37,2014-01-26 15:51:00,
2014-01-26 16:56:00,24.4,14.7,29.89,East,90,4.6,4.6,66,0.00,BKN,,0.00,0.0,WeatherDisplay:10.37,2014-01-26 15:56:00,
2014-01-26 17:01:00,24.4,14.7,29.89,East,90,5.8,5.8,66,0.00,BKN,,0.00,0.0,WeatherDisplay:10.37,2014-01-26 16:01:00,
2014-01-26 17:06:00,24.3,14.5,29.89,East,90,4.6,4.6,66,0.00,BKN,,0.00,0.0,WeatherDisplay:10.37,2014-01-26 16:06:00,
2014-01-26 17:11:00,24.1,14.7,29.89,NE,45,6.9,6.9,67,0.00,BKN,,0.00,0.0,WeatherDisplay:10.37,2014-01-26 16:11:00,
2014-01-26 17:16:00,23.9,14.5,29.89,NE,45,5.8,5.8,67,0.00,BKN,,0.00,0.0,WeatherDisplay:10.37,2014-01-26 16:16:00,
2014-01-26 17:21:00,23.7,14.4,29.90,East,90,5.8,5.8,67,0.00,BKN,,0.00,0.0,WeatherDisplay:10.37,2014-01-26 16:21:00,
2014-01-26 17:26:00,23.5,14.2,29.90,NE,45,3.5,3.5,67,0.00,BKN,,0.00,0.0,WeatherDisplay:10.37,2014-01-26 16:26:00,
2014-01-26 17:31:00,23.4,14.0,29.89,East,90,3.5,3.5,67,0.00,BKN,,0.00,0.0,WeatherDisplay:10.37,2014-01-26 16:31:00,
2014-01-26 17:36:00,23.2,13.8,29.89,NE,45,3.5,3.5,67,0.00,BKN,,0.00,0.0,WeatherDisplay:10.37,2014-01-26 16:36:00,
2014-01-26 17:41:00,23.2,13.8,29.89,NE,45,3.5,3.5,67,0.00,BKN,,0.00,0.0,WeatherDisplay:10.37,2014-01-26 16:41:00,
2014-01-26 17:46:00,23.0,13.7,29.90,SE,135,3.5,3.5,67,0.00,BKN,,0.00,0.0,WeatherDisplay:10.37,2014-01-26 16:46:00,
2014-01-26 17:51:00,23.0,14.0,29.89,East,90,3.5,3.5,68,0.00,BKN,,0.00,0.0,WeatherDisplay:10.37,2014-01-26 16:51:00,
2014-01-26 17:56:00,22.8,14.2,29.89,NE,45,3.5,0.0,69,0.00,BKN,,0.00,0.0,WeatherDisplay:10.37,2014-01-26 16:56:00,
2014-01-26 18:01:00,22.6,14.0,29.89,ENE,68,1.2,1.2,69,0.00,BKN,,0.00,0.0,WeatherDisplay:10.37,2014-01-26 17:01:00,
2014-01-26 18:06:00,22.6,14.0,29.89,East,90,1.2,1.2,69,0.00,BKN,,0.00,0.0,WeatherDisplay:10.37,2014-01-26 17:06:00,
2014-01-26 18:11:00,22.5,14.1,29.89,East,90,3.5,3.5,70,0.00,BKN,,0.00,0.0,WeatherDisplay:10.37,2014-01-26 17:11:00,
2014-01-26 18:16:00,22.5,14.1,29.90,East,90,1.2,1.2,70,0.00,BKN,,0.00,0.0,WeatherDisplay:10.37,2014-01-26 17:16:00,
2014-01-26 18:21:00,22.5,14.1,29.90,East,90,1.2,1.2,70,0.00,BKN,,0.00,0.0,WeatherDisplay:10.37,2014-01-26 17:21:00,
2014-01-26 18:26:00,22.3,14.0,29.90,East,90,1.2,0.0,70,0.00,BKN,,0.00,0.0,WeatherDisplay:10.37,2014-01-26 17:26:00,
2014-01-26 18:31:00,22.1,13.8,29.90,East,90,1.2,1.2,70,0.00,BKN,,0.00,0.0,WeatherDisplay:10.37,2014-01-26 17:31:00,
2014-01-26 18:36:00,22.1,14.1,29.90,NE,45,1.2,0.0,71,0.00,BKN,,0.00,0.0,WeatherDisplay:10.37,2014-01-26 17:36:00,
2014-01-26 18:41:00,21.9,14.0,29.90,East,90,1.2,1.2,71,0.00,BKN,,0.00,0.0,WeatherDisplay:10.37,2014-01-26 17:41:00,
2014-01-26 18:46:00,21.9,14.0,29.90,NE,45,2.3,0.0,71,0.00,BKN,,0.00,0.0,WeatherDisplay:10.37,2014-01-26 17:46:00,
2014-01-26 18:51:00,21.7,13.8,29.90,East,90,1.2,0.0,71,0.00,BKN,,0.00,0.0,WeatherDisplay:10.37,2014-01-26 17:51:00,
2014-01-26 18:56:00,21.7,13.8,29.89,East,90,3.5,3.5,71,0.00,BKN,,0.00,0.0,WeatherDisplay:10.37,2014-01-26 17:56:00,
2014-01-26 19:01:00,21.6,13.6,29.89,East,90,1.2,0.0,71,0.00,BKN,,0.00,0.0,WeatherDisplay:10.37,2014-01-26 18:01:00,
2014-01-26 19:07:00,21.6,13.9,29.89,East,90,1.2,1.2,72,0.00,CLR,,0.00,0.0,WeatherDisplay:10.37,2014-01-26 18:07:00,
2014-01-26 19:12:00,21.4,13.8,29.89,East,90,1.2,1.2,72,0.00,CLR,,0.00,0.0,WeatherDisplay:10.37,2014-01-26 18:12:00,
2014-01-26 19:17:00,21.4,13.8,29.89,East,90,2.3,2.3,72,0.00,CLR,,0.00,0.0,WeatherDisplay:10.37,2014-01-26 18:17:00,
2014-01-26 19:22:00,21.2,13.6,29.89,East,90,1.2,0.0,72,0.00,CLR,,0.00,0.0,WeatherDisplay:10.37,2014-01-26 18:22:00,
2014-01-26 19:27:00,21.2,13.6,29.89,East,90,1.2,0.0,72,0.00,CLR,,0.00,0.0,WeatherDisplay:10.37,2014-01-26 18:27:00,
2014-01-26 19:32:00,21.2,13.9,29.89,East,90,1.2,0.0,73,0.00,CLR,,0.00,0.0,WeatherDisplay:10.37,2014-01-26 18:32:00,
2014-01-26 19:37:00,21.0,14.0,29.89,South,180,1.2,0.0,74,0.00,CLR,,0.00,0.0,WeatherDisplay:10.37,2014-01-26 18:37:00,
2014-01-26 19:42:00,21.0,14.0,29.89,SE,135,1.2,1.2,74,0.00,CLR,,0.00,0.0,WeatherDisplay:10.37,2014-01-26 18:42:00,
2014-01-26 19:47:00,20.8,13.9,29.89,SE,135,1.2,0.0,74,0.00,CLR,,0.00,0.0,WeatherDisplay:10.37,2014-01-26 18:47:00,
2014-01-26 19:52:00,20.8,13.9,29.90,East,90,1.2,0.0,74,0.00,CLR,,0.00,0.0,WeatherDisplay:10.37,2014-01-26 18:52:00,
2014-01-26 19:57:00,20.7,13.7,29.90,South,180,1.2,0.0,74,0.00,CLR,,0.00,0.0,WeatherDisplay:10.37,2014-01-26 18:57:00,
2014-01-26 20:02:00,20.7,13.7,29.89,West,270,1.2,0.0,74,0.00,CLR,,0.00,0.0,WeatherDisplay:10.37,2014-01-26 19:02:00,
2014-01-26 20:07:00,20.7,13.7,29.89,West,270,2.3,2.3,74,0.00,CLR,,0.00,0.0,WeatherDisplay:10.37,2014-01-26 19:07:00,
2014-01-26 20:12:00,20.5,13.8,29.88,North,0,1.2,0.0,75,0.00,CLR,,0.00,0.0,WeatherDisplay:10.37,2014-01-26 19:12:00,
2014-01-26 20:17:00,20.5,13.8,29.88,West,270,1.2,0.0,75,0.00,CLR,,0.00,0.0,WeatherDisplay:10.37,2014-01-26 19:17:00,
2014-01-26 20:22:00,20.3,13.6,29.88,West,270,1.2,0.0,75,0.00,CLR,,0.00,0.0,WeatherDisplay:10.37,2014-01-26 19:22:00,
2014-01-26 20:27:00,20.3,13.6,29.88,NW,315,1.2,0.0,75,0.00,CLR,,0.00,0.0,WeatherDisplay:10.37,2014-01-26 19:27:00,
2014-01-26 20:32:00,20.1,13.5,29.88,West,270,1.2,1.2,75,0.00,CLR,,0.00,0.0,WeatherDisplay:10.37,2014-01-26 19:32:00,
2014-01-26 20:37:00,19.9,13.3,29.88,West,270,1.2,0.0,75,0.00,CLR,,0.00,0.0,WeatherDisplay:10.37,2014-01-26 19:37:00,
2014-01-26 20:42:00,19.9,13.3,29.87,West,270,2.3,0.0,75,0.00,CLR,,0.00,0.0,WeatherDisplay:10.37,2014-01-26 19:42:00,
2014-01-26 20:47:00,19.9,13.3,29.87,NW,315,1.2,0.0,75,0.00,CLR,,0.00,0.0,WeatherDisplay:10.37,2014-01-26 19:47:00,
2014-01-26 20:52:00,19.9,13.3,29.87,West,270,1.2,0.0,75,0.00,CLR,,0.00,0.0,WeatherDisplay:10.37,2014-01-26 19:52:00,
2014-01-26 20:57:00,19.8,13.1,29.87,West,270,1.6,1.6,75,0.00,CLR,,0.00,0.0,WeatherDisplay:10.37,2014-01-26 19:57:00,
2014-01-26 21:02:00,19.8,13.4,29.87,West,270,2.3,2.3,76,0.00,CLR,,0.00,0.0,WeatherDisplay:10.37,2014-01-26 20:02:00,
2014-01-26 21:07:00,19.8,13.4,29.87,West,270,2.3,2.3,76,0.00,CLR,,0.00,0.0,WeatherDisplay:10.37,2014-01-26 20:07:00,
2014-01-26 21:12:00,19.8,13.4,29.87,West,270,1.2,0.0,76,0.00,CLR,,0.00,0.0,WeatherDisplay:10.37,2014-01-26 20:12:00,
2014-01-26 21:17:00,19.8,13.4,29.87,NW,315,0.0,0.0,76,0.00,CLR,,0.00,0.0,WeatherDisplay:10.37,2014-01-26 20:17:00,
2014-01-26 21:22:00,19.6,13.2,29.87,NW,315,1.2,0.0,76,0.00,CLR,,0.00,0.0,WeatherDisplay:10.37,2014-01-26 20:22:00,
2014-01-26 21:27:00,19.6,13.2,29.86,North,0,0.0,0.0,76,0.00,CLR,,0.00,0.0,WeatherDisplay:10.37,2014-01-26 20:27:00,
2014-01-26 21:32:00,19.6,13.2,29.87,West,270,0.0,0.0,76,0.00,CLR,,0.00,0.0,WeatherDisplay:10.37,2014-01-26 20:32:00,
2014-01-26 21:37:00,19.4,13.1,29.86,NW,315,1.2,0.0,76,0.00,CLR,,0.00,0.0,WeatherDisplay:10.37,2014-01-26 20:37:00,
2014-01-26 21:42:00,19.4,13.1,29.86,North,0,1.2,0.0,76,0.00,CLR,,0.00,0.0,WeatherDisplay:10.37,2014-01-26 20:42:00,
2014-01-26 21:47:00,19.2,11.7,29.86,North,0,0.0,0.0,72,0.00,CLR,,0.00,0.0,WeatherDisplay:10.37,2014-01-26 20:47:00,
2014-01-26 21:52:00,19.2,11.7,29.85,NE,45,0.0,0.0,72,0.00,CLR,,0.00,0.0,WeatherDisplay:10.37,2014-01-26 20:52:00,
2014-01-26 21:57:00,18.9,11.3,29.86,NE,45,0.0,0.0,72,0.00,CLR,,0.00,0.0,WeatherDisplay:10.37,2014-01-26 20:57:00,
2014-01-26 22:02:00,18.9,11.3,29.86,East,90,1.2,0.0,72,0.00,CLR,,0.00,0.0,WeatherDisplay:10.37,2014-01-26 21:02:00,
2014-01-26 22:07:00,18.9,11.3,29.86,East,90,1.2,0.0,72,0.00,CLR,,0.00,0.0,WeatherDisplay:10.37,2014-01-26 21:07:00,
2014-01-26 22:12:00,18.7,11.1,29.86,East,90,1.2,0.0,72,0.00,CLR,,0.00,0.0,WeatherDisplay:10.37,2014-01-26 21:12:00,
2014-01-26 22:17:00,18.7,11.1,29.86,East,90,1.2,1.2,72,0.00,CLR,,0.00,0.0,WeatherDisplay:10.37,2014-01-26 21:17:00,
2014-01-26 22:22:00,18.7,11.1,29.86,ESE,112,2.3,2.3,72,0.00,CLR,,0.00,0.0,WeatherDisplay:10.37,2014-01-26 21:22:00,
2014-01-26 22:27:00,18.7,11.5,29.86,ENE,68,2.3,2.3,73,0.00,CLR,,0.00,0.0,WeatherDisplay:10.37,2014-01-26 21:27:00,
2014-01-26 22:32:00,18.7,11.5,29.86,East,90,1.2,1.2,73,0.00,CLR,,0.00,0.0,WeatherDisplay:10.37,2014-01-26 21:32:00,
2014-01-26 22:37:00,18.7,11.5,29.86,SE,135,2.3,2.3,73,0.00,CLR,,0.00,0.0,WeatherDisplay:10.37,2014-01-26 21:37:00,
2014-01-26 22:42:00,18.7,11.5,29.85,East,90,3.5,3.5,73,0.00,CLR,,0.00,0.0,WeatherDisplay:10.37,2014-01-26 21:42:00,
2014-01-26 22:47:00,18.5,11.3,29.86,East,90,2.3,2.3,73,0.00,CLR,,0.00,0.0,WeatherDisplay:10.37,2014-01-26 21:47:00,
2014-01-26 22:52:00,18.5,11.3,29.86,East,90,1.6,1.6,73,0.00,CLR,,0.00,0.0,WeatherDisplay:10.37,2014-01-26 21:52:00,
2014-01-26 22:57:00,18.5,11.3,29.85,East,90,1.2,0.0,73,0.00,CLR,,0.00,0.0,WeatherDisplay:10.37,2014-01-26 21:57:00,
2014-01-26 23:02:00,18.3,11.1,29.86,East,90,1.2,0.0,73,0.00,CLR,,0.00,0.0,WeatherDisplay:10.37,2014-01-26 22:02:00,
2014-01-26 23:07:00,18.3,11.1,29.85,East,90,2.3,2.3,73,0.00,CLR,,0.00,0.0,WeatherDisplay:10.37,2014-01-26 22:07:00,
2014-01-26 23:12:00,18.1,10.9,29.85,SE,135,2.3,2.3,73,0.00,CLR,,0.00,0.0,WeatherDisplay:10.37,2014-01-26 22:12:00,
2014-01-26 23:17:00,18.1,10.9,29.85,East,90,1.2,1.2,73,0.00,CLR,,0.00,0.0,WeatherDisplay:10.37,2014-01-26 22:17:00,
2014-01-26 23:22:00,18.0,10.8,29.85,East,90,2.3,2.3,73,0.00,CLR,,0.00,0.0,WeatherDisplay:10.37,2014-01-26 22:22:00,
2014-01-26 23:27:00,18.0,10.8,29.85,East,90,1.2,1.2,73,0.00,CLR,,0.00,0.0,WeatherDisplay:10.37,2014-01-26 22:27:00,
2014-01-26 23:32:00,17.8,10.6,29.85,East,90,1.2,0.0,73,0.00,CLR,,0.00,0.0,WeatherDisplay:10.37,2014-01-26 22:32:00,
2014-01-26 23:37:00,17.6,10.4,29.85,East,90,1.2,0.0,73,0.00,CLR,,0.00,0.0,WeatherDisplay:10.37,2014-01-26 22:37:00,
2014-01-26 23:42:00,17.6,10.4,29.84,East,90,1.2,0.0,73,0.00,CLR,,0.00,0.0,WeatherDisplay:10.37,2014-01-26 22:42:00,
2014-01-26 23:47:00,17.4,10.5,29.84,NE,45,1.2,0.0,74,0.00,CLR,,0.00,0.0,WeatherDisplay:10.37,2014-01-26 22:47:00,
2014-01-26 23:52:00,17.4,10.5,29.84,NE,45,0.0,0.0,74,0.00,CLR,,0.00,0.0,WeatherDisplay:10.37,2014-01-26 22:52:00,
2014-01-26 23:57:00,17.2,10.4,29.83,NE,45,0.0,0.0,74,0.00,CLR,,0.00,0.0,WeatherDisplay:10.37,2014-01-26 22:57:00,